Probability
3 3 3 3 6 6 6 3 6 10 13 10 13 10 13 16 16 16 19 42 65 68 71 77 71 65 68 71 71 61 58 52 55 55 55 48 45 35 39 39 23 23 19
3 3 3 3 3 3 3 6 6 13 10 13 13 10 13 13 13 16 19 23 58 65 65 71 71 71 68 61 68 65 65 61 55 55 52 55 55 55 48 35 39 26 26
6 3 3 3 3 6 3 13 13 10 13 13 10 10 13 10 10 10 16 19 23 48 61 68 68 65 68 58 58 58 65 65 61 58 55 48 48 42 52 52 45 42 32
6 3 3 3 6 6 3 13 13 13 13 13 6 13 10 10 10 6 16 16 16 19 39 52 55 58 65 52 52 55 61 61 61 55 48 45 45 39 39 35 39 39 32
10 6 10 3 6 0 3 6 13 10 13 13 16 13 13 3 6 6 13 13 16 16 19 23 52 55 58 55 58 55 48 55 52 52 45 45 48 45 45 39 35 32 29
10 10 10 6 3 0 6 3 10 13 13 13 13 13 10 6 6 10 13 13 16 16 19 19 29 42 55 52 48 52 52 55 48 45 35 35 39 42 42 42 39 35 29
13 13 13 6 6 6 3 6 10 10 10 10 10 6 6 3 3 6 10 16 13 16 16 16 16 19 23 39 48 48 52 52 55 45 39 42 42 39 39 39 35 35 29
10 19 6 0 3 6 10 10 10 13 16 13 10 6 3 0 6 3 3 6 6 10 6 10 19 19 16 26 23 29 42 48 42 42 39 48 39 39 35 32 35 32 26
10 6 6 6 3 3 6 6 13 13 19 16 13 10 10 3 3 3 0 6 6 6 3 10 6 13 13 13 19 13 32 39 42 32 35 48 42 32 35 32 35 32 32
10 10 10 10 10 10 10 10 16 16 19 19 13 10 10 6 6 6 6 10 10 6 6 3 6 6 10 13 10 3 6 16 32 39 35 45 45 42 39 42 39 39 26
13 16 16 13 13 10 13 13 16 19 19 19 19 19 13 6 3 6 10 10 10 10 6 10 13 10 6 3 3 3 3 6 10 19 39 39 42 42 42 42 39 32 29
16 19 23 19 16 16 16 19 23 19 19 23 23 19 13 13 10 10 10 10 6 6 10 10 10 6 3 3 3 3 3 3 0 3 6 6 16 32 35 35 35 29 29
16 16 16 19 19 19 19 19 32 29 26 26 26 23 13 13 13 10 10 6 6 10 10 6 6 6 3 3 3 3 0 0 0 0 0 3 3 3 6 10 19 19 23
16 16 19 16 19 19 19 23 29 26 26 26 26 26 16 13 10 10 10 10 10 6 6 10 6 3 0 3 0 0 3 0 0 0 0 0 0 3 3 3 3 3 6
16 16 23 19 23 23 26 26 26 29 23 19 26 23 16 10 10 10 10 10 10 10 10 10 6 6 3 3 0 3 3 0 0 0 0 0 0 0 0 0 0 0 0
16 16 19 19 23 19 19 19 19 19 23 23 19 23 23 23 16 10 10 10 10 13 13 13 10 13 0 0 0 3 3 0 0 0 0 0 0 0 0 0 0 0 0
16 23 19 16 19 19 19 19 19 19 23 19 19 23 23 26 23 16 10 10 10 10 13 13 13 6 3 6 6 6 6 3 3 0 0 0 0 0 0 0 0 0 0
16 23 23 19 16 19 19 19 19 23 23 23 26 23 26 19 19 16 13 13 13 13 13 16 13 10 6 6 6 3 0 0 0 0 0 0 0 0 0 0 0 0 0
16 16 19 16 16 19 19 19 19 23 23 19 19 19 23 19 19 19 16 16 16 16 13 13 13 10 10 3 3 0 0 0 0 0 0 0 0 0 0 0 0 0 0
19 19 13 16 16 13 16 16 19 19 19 16 16 16 19 16 19 19 19 16 16 13 13 13 13 10 10 0 0 3 3 0 0 0 0 0 0 0 0 0 0 0 0
23 19 19 16 13 16 13 13 16 19 19 19 19 23 23 16 16 16 16 16 13 13 13 13 13 10 3 0 0 0 0 6 3 0 0 0 0 0 0 0 0 0 0
19 19 16 16 13 16 13 13 13 16 16 19 19 23 23 23 19 13 13 10 10 10 10 13 13 13 3 0 0 0 3 3 3 0 3 3 0 0 0 0 0 0 0
19 19 19 16 16 16 13 10 6 16 19 19 19 19 19 16 13 13 13 6 6 6 3 10 6 6 6 6 3 3 6 3 6 3 0 6 0 0 0 0 0 0 0
16 16 16 16 16 13 10 6 10 13 19 19 16 13 16 16 13 13 13 13 13 13 6 3 6 6 6 6 3 6 3 3 3 0 0 3 3 0 0 0 0 0 0
13 13 13 13 13 13 3 6 6 13 13 10 10 6 10 10 6 3 6 13 13 10 10 3 0 0 0 0 0 3 3 3 3 3 0 0 0 0 3 3 0 0 0
13 13 10 10 10 6 3 3 6 10 13 10 6 6 6 3 3 0 0 3 6 10 10 6 3 3 0 0 0 0 3 3 3 3 3 0 0 0 3 3 0 0 0
Height
5895 5895 5895 5896 5895 5895 5896 5896 5897 5897 5897 5897 5898 5899 5899 5900 5901 5901 5902 5902 5902 5902 5902 5902 5902 5902 5902 5902 5902 5902 5901 5901 5900 5900 5900 5899 5899 5898 5898 5897 5897 5896 5896
5894 5894 5894 5894 5894 5894 5894 5895 5895 5895 5896 5896 5897 5897 5898 5899 5900 5900 5901 5901 5901 5901 5901 5901 5901 5901 5901 5901 5900 5900 5900 5900 5899 5899 5899 5898 5897 5897 5896 5896 5895 5895 5895
5892 5893 5893 5893 5893 5893 5893 5893 5894 5894 5894 5894 5895 5896 5896 5897 5898 5898 5899 5899 5899 5899 5900 5899 5899 5900 5900 5899 5899 5899 5898 5898 5898 5897 5897 5896 5896 5895 5895 5894 5894 5893 5893
5892 5892 5892 5892 5892 5892 5892 5892 5892 5892 5893 5893 5894 5894 5895 5895 5896 5897 5897 5897 5897 5898 5898 5898 5898 5898 5898 5898 5897 5897 5896 5896 5896 5895 5895 5894 5894 5893 5893 5892 5891 5891 5891
5890 5891 5891 5891 5890 5890 5890 5891 5891 5891 5891 5891 5892 5892 5893 5893 5894 5895 5895 5895 5895 5895 5896 5896 5896 5896 5896 5895 5895 5894 5894 5894 5893 5893 5892 5892 5892 5891 5890 5890 5889 5889 5889
5889 5889 5889 5889 5889 5889 5889 5889 5890 5890 5890 5890 5890 5890 5891 5891 5892 5892 5893 5893 5893 5893 5893 5893 5893 5893 5893 5893 5892 5892 5891 5891 5890 5890 5890 5889 5889 5889 5888 5887 5887 5886 5886
5888 5888 5887 5887 5887 5888 5888 5888 5888 5888 5888 5888 5888 5888 5889 5889 5889 5890 5890 5890 5890 5890 5890 5890 5890 5890 5890 5890 5890 5889 5889 5888 5888 5887 5887 5886 5886 5886 5885 5884 5884 5883 5883
5886 5886 5886 5886 5886 5886 5886 5886 5886 5886 5885 5885 5886 5886 5887 5888 5887 5887 5887 5887 5887 5887 5887 5887 5887 5887 5887 5886 5886 5886 5885 5885 5884 5884 5884 5883 5883 5882 5882 5881 5880 5880 5879
5884 5884 5884 5884 5884 5884 5884 5884 5884 5883 5883 5883 5883 5884 5884 5884 5884 5884 5884 5884 5884 5884 5883 5883 5883 5883 5883 5883 5882 5882 5882 5881 5881 5881 5880 5880 5879 5879 5878 5877 5877 5876 5876
5882 5882 5882 5882 5882 5882 5882 5881 5881 5881 5881 5881 5881 5881 5881 5881 5881 5881 5881 5880 5880 5879 5879 5878 5878 5878 5878 5878 5878 5878 5878 5877 5877 5877 5876 5876 5875 5875 5874 5873 5872 5872 5871
5880 5880 5880 5879 5879 5879 5879 5879 5879 5879 5878 5878 5878 5878 5877 5877 5877 5877 5877 5877 5876 5875 5874 5874 5874 5874 5874 5874 5873 5873 5873 5873 5873 5872 5872 5872 5871 5870 5870 5869 5868 5868 5867
5879 5879 5878 5877 5877 5876 5876 5876 5876 5875 5875 5875 5875 5874 5874 5874 5873 5873 5873 5872 5871 5870 5869 5869 5869 5869 5869 5868 5868 5868 5868 5868 5868 5867 5867 5867 5866 5866 5865 5864 5864 5863 5863
5877 5877 5876 5875 5874 5874 5873 5873 5872 5872 5872 5872 5871 5871 5870 5870 5869 5869 5868 5867 5867 5866 5865 5864 5864 5863 5863 5863 5863 5863 5862 5862 5862 5862 5862 5861 5861 5861 5860 5860 5859 5858 5857
5875 5874 5873 5872 5872 5871 5870 5869 5869 5868 5868 5868 5867 5867 5866 5865 5864 5864 5863 5863 5862 5861 5860 5859 5858 5858 5857 5857 5857 5857 5857 5857 5856 5856 5856 5855 5855 5855 5855 5854 5854 5853 5852
5873 5872 5871 5870 5868 5867 5866 5865 5865 5864 5864 5863 5863 5862 5862 5861 5860 5858 5858 5857 5857 5856 5855 5854 5853 5852 5851 5851 5851 5851 5851 5851 5851 5850 5849 5849 5849 5849 5849 5848 5848 5847 5847
5870 5869 5867 5866 5865 5863 5862 5861 5860 5859 5859 5859 5858 5858 5857 5856 5855 5853 5852 5851 5850 5850 5849 5848 5847 5846 5845 5845 5845 5844 5844 5844 5844 5843 5843 5842 5842 5842 5842 5842 5841 5841 5840
5866 5864 5863 5862 5861 5859 5858 5857 5855 5854 5854 5853 5853 5852 5851 5850 5849 5848 5846 5845 5844 5843 5843 5842 5841 5839 5839 5838 5838 5838 5838 5837 5836 5836 5835 5835 5835 5835 5834 5834 5834 5833 5832
5860 5859 5858 5857 5856 5855 5853 5852 5850 5849 5848 5847 5847 5846 5845 5844 5843 5841 5840 5839 5837 5836 5835 5835 5834 5833 5832 5831 5830 5830 5829 5829 5829 5828 5827 5827 5827 5827 5827 5826 5826 5825 5825
5854 5853 5852 5851 5850 5849 5848 5846 5845 5843 5842 5841 5840 5839 5838 5837 5836 5834 5833 5831 5830 5829 5828 5827 5826 5825 5824 5823 5822 5822 5821 5820 5820 5819 5819 5819 5818 5818 5818 5818 5818 5817 5816
5848 5847 5846 5845 5844 5842 5841 5840 5838 5837 5835 5834 5833 5832 5830 5829 5828 5826 5825 5823 5822 5820 5819 5818 5818 5817 5816 5815 5814 5813 5812 5811 5811 5810 5810 5810 5810 5810 5810 5809 5809 5808 5807
5841 5840 5839 5838 5837 5836 5834 5833 5831 5830 5828 5827 5825 5824 5822 5821 5819 5818 5816 5815 5813 5812 5811 5810 5809 5808 5807 5806 5805 5804 5803 5802 5801 5801 5801 5801 5800 5800 5800 5800 5800 5799 5798
5834 5833 5832 5831 5830 5828 5826 5825 5823 5822 5820 5819 5817 5815 5814 5812 5811 5809 5807 5806 5804 5803 5802 5801 5799 5799 5798 5796 5795 5794 5793 5793 5793 5793 5791 5791 5791 5791 5791 5790 5790 5789 5789
5826 5826 5825 5823 5822 5820 5818 5816 5815 5813 5811 5810 5808 5807 5805 5803 5801 5800 5798 5797 5795 5794 5793 5791 5790 5789 5788 5787 5785 5785 5784 5783 5783 5783 5782 5782 5782 5781 5781 5781 5780 5779 5779
5818 5817 5816 5815 5813 5811 5810 5808 5806 5804 5802 5800 5799 5797 5795 5793 5791 5790 5789 5787 5786 5784 5783 5781 5781 5780 5778 5777 5775 5775 5774 5773 5774 5773 5772 5773 5773 5772 5771 5771 5770 5769 5769
5811 5809 5808 5806 5805 5803 5801 5799 5797 5795 5793 5791 5790 5788 5786 5784 5782 5781 5780 5778 5777 5775 5773 5772 5770 5769 5768 5767 5766 5765 5764 5763 5763 5763 5762 5763 5763 5762 5761 5761 5760 5759 5758
5802 5801 5800 5798 5796 5795 5793 5791 5789 5786 5784 5782 5780 5778 5776 5774 5772 5771 5770 5769 5768 5766 5764 5762 5760 5759 5758 5757 5756 5755 5754 5753 5753 5753 5752 5752 5752 5751 5751 5750 5750 5749 5748
Wind_Speed
4 4 5 5 6 6 7 7 7 7 8 8 9 9 8 8 7 6 6 6 6 7 7 7 6 5 5 5 5 4 4 5 5 5 5 5 5 5 4 4 4 5 5
4 5 6 6 6 7 7 7 8 8 8 9 8 9 9 9 8 8 7 8 8 8 8 8 7 7 7 7 6 6 6 6 6 6 7 7 6 6 6 6 6 6 6
4 5 6 7 7 7 7 8 7 9 9 9 9 9 9 9 9 9 9 9 9 9 9 8 8 9 9 9 9 9 8 8 8 8 8 8 8 8 8 8 7 8 7
5 5 6 6 7 7 7 7 7 7 9 9 9 9 9 9 10 10 10 11 10 10 10 10 10 10 10 10 11 11 10 10 10 9 10 10 10 10 9 9 9 9 9
5 5 5 6 7 7 7 8 8 8 9 10 10 10 10 11 11 12 12 12 12 12 12 12 11 11 11 11 12 12 12 12 11 11 11 11 11 10 10 10 10 10 10
6 6 6 6 7 7 8 8 9 10 10 10 10 10 11 11 12 13 13 13 13 13 14 13 13 13 13 13 13 13 13 13 12 12 11 12 12 12 12 12 12 11 12
7 8 7 7 7 8 9 9 10 11 11 11 11 11 11 12 12 13 13 13 14 14 14 14 15 15 15 15 15 14 13 13 14 13 13 13 13 13 13 14 13 13 13
8 8 8 8 8 8 9 9 10 11 11 12 11 11 12 13 14 14 14 14 15 15 16 16 16 16 16 16 16 15 14 14 14 14 15 15 14 14 14 14 15 14 14
8 9 9 9 8 9 10 11 11 11 11 11 11 12 12 13 14 15 16 15 16 17 18 18 18 17 17 17 16 16 16 16 15 15 15 16 16 16 16 16 16 15 15
7 8 9 9 9 10 10 10 11 12 12 12 12 12 13 12 12 14 15 16 17 18 19 18 18 18 18 18 18 19 19 18 17 17 17 17 17 17 17 17 17 17 16
7 8 9 10 10 11 10 11 11 12 12 12 12 12 13 14 13 14 15 16 17 18 18 19 19 19 20 20 20 20 20 19 18 19 19 18 18 18 18 18 17 17 18
8 8 9 10 11 11 11 11 12 12 13 14 13 13 14 15 16 16 17 18 19 19 19 19 20 21 21 22 21 20 20 21 21 21 21 20 20 20 19 19 19 20 20
9 9 10 11 12 12 12 13 14 14 13 13 13 14 15 16 17 17 18 19 20 20 21 21 22 22 23 23 22 22 22 22 22 23 23 22 21 21 21 20 20 21 21
11 11 11 12 13 14 14 15 16 16 16 15 15 16 16 17 18 18 19 19 20 21 22 22 22 23 23 23 23 24 24 23 23 23 23 23 23 23 22 22 21 21 22
13 13 13 14 14 15 16 17 17 18 18 18 18 18 19 20 20 20 20 20 20 21 22 22 22 23 23 24 24 24 24 24 24 24 24 24 24 24 24 24 24 24 24
15 15 16 16 16 16 17 17 18 19 20 21 20 20 21 21 21 22 22 22 22 22 21 23 24 24 24 25 26 25 25 25 26 26 26 26 26 26 26 26 26 26 26
18 17 18 18 19 19 19 18 19 20 21 22 22 23 22 22 23 23 24 24 24 25 24 23 24 25 26 27 28 28 28 28 28 28 28 29 29 28 27 27 27 27 27
20 20 20 21 21 21 21 20 21 22 22 22 23 23 24 24 25 25 25 26 26 27 26 26 26 27 28 28 29 29 30 30 30 30 30 30 31 30 29 29 30 30 29
21 21 22 23 23 23 23 23 23 23 23 24 24 25 25 26 26 27 28 28 28 29 29 28 28 29 29 30 30 30 30 31 32 32 32 31 31 31 31 31 31 32 31
22 23 23 24 24 25 25 25 26 26 26 27 27 27 27 28 28 29 29 29 29 29 29 30 30 31 31 31 31 31 31 33 33 33 32 32 32 32 32 32 32 32 32
24 25 25 25 26 26 27 27 28 28 28 29 30 30 29 30 30 30 30 29 29 30 30 31 31 31 31 31 32 32 32 33 32 32 32 33 33 33 33 32 33 32 32
26 25 25 26 27 28 28 29 29 30 31 31 31 31 32 32 32 32 32 32 32 32 32 32 31 31 31 32 33 33 33 33 32 32 32 33 33 33 33 33 33 33 33
26 26 26 28 29 29 30 30 31 31 32 32 32 33 33 33 33 33 33 33 33 32 32 32 32 32 33 33 34 34 34 34 33 33 33 33 33 33 33 34 34 34 34
27 27 27 28 29 30 31 31 31 32 32 32 33 34 34 34 34 34 33 33 32 33 33 33 33 33 33 33 33 34 34 34 33 33 33 34 33 33 33 33 34 34 35
27 27 27 28 29 30 31 31 31 31 32 33 34 34 35 34 33 33 33 32 32 32 33 33 33 33 33 33 33 34 34 34 33 34 35 35 34 34 35 34 35 35 35
28 27 28 29 30 31 32 32 32 32 32 33 34 34 35 34 34 33 33 33 32 32 33 33 34 34 34 33 34 34 34 34 34 34 35 36 36 36 36 36 36 36 36
Wind_Direction
247 252 250 247 245 247 243 241 247 246 247 243 239 238 239 242 247 254 258 259 262 263 260 263 267 280 280 281 282 284 290 290 286 286 287 289 291 298 301 301 290 283 279
254 256 256 249 250 252 246 238 250 249 252 246 241 238 242 244 239 248 258 263 268 267 266 264 269 275 275 275 278 278 279 283 284 283 281 282 287 290 291 292 294 287 276
264 259 254 257 264 263 261 255 253 252 252 246 246 245 243 244 244 250 261 265 271 271 268 268 267 272 275 277 279 277 276 277 279 284 285 286 286 286 287 288 290 289 281
271 275 264 263 266 268 261 259 262 256 254 251 248 246 249 249 249 254 263 266 268 269 266 265 265 270 274 277 280 277 275 276 277 280 282 284 285 285 284 284 285 285 284
270 277 273 266 263 266 263 257 258 261 258 253 249 252 251 248 252 255 261 266 267 267 268 266 264 270 271 276 279 278 276 276 276 277 277 279 283 285 284 285 282 283 282
274 277 277 270 266 267 270 267 262 265 260 259 260 263 262 263 262 260 262 266 268 266 267 268 267 267 268 273 278 280 280 277 278 274 276 280 282 282 282 284 283 280 278
277 283 280 274 270 267 267 272 272 266 264 266 265 267 265 265 265 267 266 267 267 268 270 268 267 267 268 272 275 278 278 278 280 276 279 283 283 284 285 283 281 278 277
274 277 285 280 276 270 265 267 269 270 272 269 266 268 268 268 267 267 266 266 268 268 269 269 269 266 268 272 276 276 276 277 279 279 279 280 281 281 282 283 281 277 276
271 273 280 280 276 273 268 267 270 272 275 274 271 270 270 271 269 268 270 269 268 269 269 269 268 267 269 272 275 275 275 275 276 280 279 278 279 279 279 280 282 277 274
272 269 274 278 278 282 280 275 273 271 273 273 275 274 276 280 277 267 270 272 273 273 272 270 269 269 269 270 272 273 273 273 274 276 278 278 279 278 278 280 280 277 277
284 278 274 278 278 278 281 281 278 276 276 277 277 278 279 282 281 275 271 274 277 278 276 272 270 270 269 270 271 273 274 274 274 275 275 277 277 278 278 278 278 278 277
292 290 288 282 281 282 282 285 281 280 279 277 277 279 280 281 282 276 274 274 277 277 275 272 270 270 271 272 272 274 273 273 273 273 273 273 274 276 276 277 278 277 277
296 293 290 287 288 285 285 285 283 278 281 282 282 282 280 279 279 279 277 277 276 275 274 274 273 271 272 273 272 272 273 273 273 273 272 271 272 275 275 278 279 278 278
298 295 292 291 289 286 283 284 284 280 280 281 282 284 284 284 285 283 282 280 278 278 276 275 276 274 272 272 271 272 273 272 272 272 273 272 272 272 272 274 277 278 279
296 291 290 292 292 288 285 284 284 282 280 281 283 283 285 287 288 288 286 284 283 282 280 278 277 277 273 271 271 272 271 271 273 274 274 272 271 272 272 275 276 276 277
290 289 288 289 289 289 288 287 286 281 279 281 282 283 284 285 287 287 286 285 284 284 281 279 278 276 275 274 272 272 271 272 273 274 274 272 271 272 272 273 275 276 277
286 285 285 285 286 286 288 287 287 283 281 281 282 284 284 284 286 285 284 284 283 283 281 279 279 278 277 276 273 273 273 273 274 275 274 273 272 271 272 272 274 275 275
285 283 283 283 284 285 286 287 289 286 283 281 282 283 284 283 285 285 284 283 282 281 281 279 279 279 277 276 275 275 274 273 274 274 274 274 273 272 272 272 273 274 275
286 282 282 282 283 284 285 285 287 287 284 283 283 283 284 283 284 284 283 283 282 280 280 280 279 279 278 277 278 277 276 276 275 275 275 275 274 272 272 273 274 274 273
286 284 283 283 284 284 285 285 286 286 284 284 285 286 284 283 284 284 284 283 283 280 279 279 279 280 279 278 278 276 276 276 276 275 273 272 273 273 273 273 274 276 275
287 284 282 282 283 284 285 285 287 287 286 283 285 285 283 284 284 283 283 283 282 281 279 278 279 280 280 278 278 277 277 277 277 275 272 271 271 272 272 273 274 275 275
288 285 283 281 281 282 283 284 285 285 286 284 284 284 283 282 281 281 281 282 281 280 280 279 279 280 280 280 279 277 276 276 276 275 274 273 274 274 275 275 275 275 275
286 285 285 284 283 283 283 284 284 285 285 282 283 283 283 282 280 279 281 281 281 281 282 281 280 279 280 279 278 277 276 275 274 274 273 275 275 276 275 275 276 276 276
285 286 286 286 285 285 284 284 284 285 284 283 283 283 284 282 281 281 282 283 283 283 283 281 280 280 279 278 278 278 277 275 274 274 274 275 276 276 275 275 276 277 277
286 287 287 287 288 289 289 288 287 287 286 287 286 284 284 282 282 282 283 283 283 283 283 282 281 280 279 278 277 278 277 276 276 275 275 276 275 276 276 275 276 277 278
286 288 289 291 290 290 291 291 289 289 289 288 287 287 286 283 282 282 282 282 281 282 281 281 280 280 279 278 279 278 277 277 276 276 276 276 276 276 276 276 276 277 278